Change the Weather History Date:

Monday, April 1, 2013

  Actual Average Record
Temperature  
Mean Temperature 66 °F 61 °F  
Max Temperature 73 °F 71 °F 84 °F (2005)
Min Temperature 58 °F 51 °F 41 °F (1998)
Degree Days  
Heating Degree Days 0 5  
Month to date heating degree days 0 5  
Since 1 July heating degree days 715 1097  
Cooling Degree Days 1 0  
Month to date cooling degree days 1 0  
Year to date cooling degree days 52 22  
Growing Degree Days 14 (Base 50)    
Moisture  
Dew Point 50 °F    
Average Humidity 61    
Maximum Humidity 77    
Minimum Humidity 44    
Precipitation  
Precipitation 0.00 in 0.03 in 0.21 in (2006)
Month to date precipitation 0.00 0.03  
Year to date precipitation 2.03 8.47  
Since 1 July precipitation 5.34  
Snow  
Snow 0.00 in - - ()
Month to date snowfall 0.0  
Year to date snowfall 0.0  
Since 1 July snowfall 0.0  
Snow Depth 0.00 in    
Sea Level Pressure  
Sea Level Pressure 30.11 in    
Wind  
Wind Speed 4 mph (West)    
Max Wind Speed 12 mph    
Max Gust Speed 18 mph    
Visibility 10 miles    
Events      
T = Trace of Precipitation, MM = Missing Value Source: NWS Daily Summary

Daily Weather History Graph

Daily Weather History Graph

Search for Another Location

Airport or City:

Trip Planner

Search our weather history database for the weather conditions in past years. The results will help you decide how hot, cold, wet, or windy it might be!

Date:

Astronomy

Apr. 01, 2013 Rise Set
Actual Time 6:38 AM PDT 7:12 PM PDT
Civil Twilight 6:13 AM PDT 7:38 PM PDT
Nautical Twilight 5:44 AM PDT 8:07 PM PDT
Astronomical Twilight 5:14 AM PDT 8:37 PM PDT
Moon 12:13 AM PDT (4/1) 10:42 AM PDT (4/1)
Length of Visible Light 13h 24m
Length of Day
12h 34m
Waning Gibbous, 66% of the Moon is Illuminated
Apr 1
Waning Gibbous
Apr 2
Last Quarter
Apr 10
New
Apr 18
First Quarter
Apr 25
Full

Hourly Weather History & Observations

Time (PDT) Temp. Dew Point Humidity Pressure Visibility Wind Dir Wind Speed Gust Speed Precip Events Conditions
12:53 AM 60.1 °F 51.1 °F 72% 30.11 in 10.0 mi Calm Calm - N/A   Overcast
1:27 AM 60.8 °F 51.8 °F 72% 30.11 in 10.0 mi Variable 3.5 mph - N/A   Overcast
1:53 AM 60.1 °F 51.1 °F 72% 30.10 in 10.0 mi Calm Calm - N/A   Overcast
2:46 AM 59.0 °F 51.8 °F 77% 30.11 in 10.0 mi WSW 4.6 mph - N/A   Overcast
2:53 AM 59.0 °F 51.1 °F 75% 30.11 in 10.0 mi SW 3.5 mph - N/A   Overcast
3:01 AM 59.0 °F 51.8 °F 77% 30.11 in 10.0 mi Calm Calm - N/A   Overcast
3:21 AM 57.2 °F 50.0 °F 77% 30.11 in 10.0 mi Calm Calm - N/A   Scattered Clouds
3:53 AM 57.9 °F 50.0 °F 75% 30.10 in 10.0 mi West 3.5 mph - N/A   Scattered Clouds
4:29 AM 57.2 °F 51.8 °F 82% 30.11 in 10.0 mi West 3.5 mph - N/A   Mostly Cloudy
4:53 AM 57.9 °F 50.0 °F 75% 30.11 in 10.0 mi West 4.6 mph - N/A   Overcast
5:53 AM 59.0 °F 50.0 °F 72% 30.12 in 10.0 mi WSW 3.5 mph - N/A   Overcast
6:53 AM 59.0 °F 48.9 °F 69% 30.13 in 10.0 mi Calm Calm - N/A   Overcast
7:53 AM 60.1 °F 48.9 °F 67% 30.15 in 10.0 mi Calm Calm - N/A   Overcast
8:13 AM 60.8 °F 48.2 °F 63% 30.16 in 10.0 mi Calm Calm - N/A   Overcast
8:53 AM 61.0 °F 48.9 °F 64% 30.16 in 10.0 mi Calm Calm - N/A   Mostly Cloudy
9:27 AM 62.6 °F 48.2 °F 59% 30.16 in 10.0 mi Calm Calm - N/A   Overcast
9:53 AM 63.0 °F 46.9 °F 56% 30.16 in 10.0 mi Calm Calm - N/A   Overcast
10:31 AM 64.4 °F 46.4 °F 52% 30.16 in 10.0 mi West 3.5 mph - N/A   Overcast
10:46 AM 66.2 °F 46.4 °F 49% 30.17 in 10.0 mi Calm Calm - N/A   Mostly Cloudy
10:53 AM 66.0 °F 46.9 °F 50% 30.17 in 10.0 mi NW 4.6 mph - N/A   Mostly Cloudy
11:53 AM 70.0 °F 46.0 °F 42% 30.16 in 10.0 mi Variable 5.8 mph - N/A   Partly Cloudy
12:53 PM 66.9 °F 48.0 °F 51% 30.14 in 9.0 mi Variable 5.8 mph - N/A   Overcast
1:53 PM 70.0 °F 48.0 °F 46% 30.12 in 10.0 mi WNW 8.1 mph - N/A   Overcast
2:53 PM 71.1 °F 48.9 °F 45% 30.10 in 10.0 mi West 6.9 mph - N/A   Mostly Cloudy
3:53 PM 71.1 °F 50.0 °F 47% 30.09 in 10.0 mi West 9.2 mph 17.3 mph N/A   Mostly Cloudy
4:53 PM 69.1 °F 50.0 °F 51% 30.07 in 10.0 mi WSW 8.1 mph 17.3 mph N/A   Partly Cloudy
5:53 PM 66.9 °F 51.1 °F 57% 30.07 in 10.0 mi WNW 6.9 mph - N/A   Partly Cloudy
6:26 PM 66.2 °F 51.8 °F 60% 30.08 in 10.0 mi West 9.2 mph - N/A   Mostly Cloudy
6:39 PM 64.4 °F 51.8 °F 64% 30.08 in 10.0 mi Variable 6.9 mph - N/A   Scattered Clouds
6:53 PM 64.9 °F 51.1 °F 61% 30.08 in 10.0 mi WNW 8.1 mph - N/A   Partly Cloudy
7:41 PM 62.6 °F 51.8 °F 68% 30.08 in 10.0 mi West 6.9 mph - N/A   Mostly Cloudy
7:53 PM 63.0 °F 52.0 °F 67% 30.08 in 10.0 mi WNW 5.8 mph - N/A   Mostly Cloudy
8:11 PM 62.6 °F 51.8 °F 68% 30.07 in 10.0 mi West 5.8 mph - N/A   Partly Cloudy
8:53 PM 62.1 °F 51.1 °F 67% 30.07 in 10.0 mi Calm Calm - N/A   Partly Cloudy
9:53 PM 61.0 °F 51.1 °F 70% 30.08 in 10.0 mi SW 3.5 mph - N/A   Clear
10:53 PM 60.1 °F 51.1 °F 72% 30.08 in 10.0 mi Calm Calm - N/A   Partly Cloudy
11:53 PM 59.0 °F 50.0 °F 72% 30.08 in 10.0 mi Calm Calm - N/A   Clear